User: anonymous   Login
Location: Unspecified
(0.0000°N, 0.0000°E)
Time: 08:09:50
(UTC+00:00)
Language:

GOES 3 - Orbit

View from above orbital plane
View from above orbital plane
View from above satellite
View from above satellite

Ground track
Ground track

The orbit data is extracted from the following two-line orbital elements,

1 10953U 78062A   19345.55833014  .00000108  00000-0  00000+0 0  9990
2 10953  12.0177 321.1757 0004146 351.7040  25.7651  0.99357610104954
Epoch (UTC): 11 December 2019 13:23:59
Eccentricity: 0.0004146
inclination: 12.0177°
perigee height: 36027 km
apogee height: 36062 km
right ascension of ascending node: 321.1757°
argument of perigee: 351.7040°
revolutions per day: 0.99357610
mean anomaly at epoch: 25.7651°
orbit number at epoch: 10495

The dashed part of the orbit path shows where the satellite is in the earth's shadow,  

DLR